Retour au catalogue

STARLINK-34213

ActifCommunicationsSSO
NORAD 64148·PAYLOAD·🇺🇸 United States

Lancé May 27, 2025 depuis Vandenberg Space Force Base

Loading…

Prochains Passages (prochaines 24 heures)

TLE

FraisSource: CelesTrak SupGP

Époque: Sep 14, 2026, 20:40 UTC

1 64148C 25112C   26257.86159722 -.00017370  00000+0 -53951-3 0  2578
2 64148  97.2831 305.0633 0000966  94.0561  59.9996 15.33431453    11

Suivez STARLINK-34213 en temps réel avec AllMySat

Download on the App Store